Torna al catalogo

FENGYUN 1C DEB

AttivoPO
NORAD 31036·DEBRIS·🇨🇳 China

Lanciato May 10, 1999 da Taiyuan Satellite Launch Center

Loading…

Prossimi Passaggi (prossime 24 ore)

TLE

AggiornatoSource: Space-Track

Epoca: Sep 14, 2026, 14:31 UTC

1 31036U 99025BEE 26257.60502497  .00000591  00000-0  14962-3 0  9993
2 31036  98.9410  25.0409 0138060 155.7542 270.2272 14.49521012613037

Traccia FENGYUN 1C DEB in tempo reale con AllMySat

Download on the App Store